Location: Te Maire Creek
(41.1333°S, 175.9167°E)
Time: 22:05:53
(UTC+00:00)

Cosmos 1892 Rocket - Pass Details

Date: 19 May 2024
Orbit: 604 x 628 km, 82.5° (Epoch: 22 June)

Event Time Altitude Azimuth Distance (km) Brightness Sun altitude
Exits shadow 18:09:20 - 197° (SSW) 2,626 6.5 -13.6°
Reaches altitude 10° 18:10:55 10° 203° (SSW) 2,012 5.8 -13.4°
Maximum altitude 18:15:05 40° 272° (W) 916 4.0 -12.6°
Drops below altitude 10° 18:19:10 10° 341° (NNW) 1,970 6.1 -11.9°
Sets 18:21:27 0° 348° (NNW) 2,861 7.0 -11.4°
